Regional Weather Roundup
Issued by NWS

Home | Current Version | Previous Version | Text Only | Print | Product List | Glossary Off
Versions: 1 2 3 4 5 6 7 8 9 10 11 12 13 14 15 16 17 18 19 20 21 22 23 24 25 26 27 28 29 30 31 32 33 34 35 36 37 38 39 40 41 42 43 44 45 46 47 48 49 50

000
ASUS43 KDTX 222301
RWRMI
MICHIGAN HOURLY REGIONAL WEATHER ROUNDUP
NATIONAL WEATHER SERVICE DETROIT/PONTIAC MI
600 PM EST THU FEB 22 2018

NOTE: "FAIR" INDICATES FEW OR NO CLOUDS BELOW 12,000 FEET WITH NO
SIGNIFICANT WEATHER AND/OR OBSTRUCTION TO VISIBILITY.

MIZ047>049-052>055-059>063-066>070-074>076-081>083-230000-
SOUTHEAST LOWER MICHIGAN

CITY           SKY/WX    TMP DP  RH WIND       PRES   REMARKS
ADRIAN         CLOUDY    37  31  78 E15       30.49F WCI  28
ANN ARBOR      CLOUDY    38  26  62 NE9       30.51S WCI  31
BAD AXE        FAIR      29  22  75 NE8       30.61R WCI  21
CARO           FAIR      32  25  76 NE6       30.58R WCI  27
DETROIT CITY   CLOUDY    36  25  64 NE7       30.55R WCI  30
DETROIT        MOCLDY    38  26  62 E7        30.54R WCI  33
FLINT          CLOUDY    36  24  62 NE8       30.55R WCI  30
GROSSE ILE     MOCLDY    36  28  74 NE10      30.51F WCI  28
HILLSDALE      FAIR      36  30  80 E12G18    30.45F WCI  27
HOWELL         CLOUDY    39  22  50 E8        30.52S WCI  34

CITY           SKY/WX    TMP DP  RH WIND       PRES   REMARKS
JACKSON        CLOUDY    39  27  62 NE12      30.48F WCI  32
LAMBERTVILLE   CLOUDY    34  29  83 E8        30.50S WCI  27
LANSING        FAIR      37  24  59 NE10      30.52S WCI  30
LAPEER         MOCLDY    33  24  69 NE3       30.57R
MASON          CLOUDY    40  23  49 NE9       30.50F WCI  34
MONROE         CLOUDY    36  28  73 NE8       30.51S WCI  29
MT. CLEMENS    PTCLDY    35  28  76 NE10      30.54R WCI  28
PONTIAC        MOCLDY    36  23  59 NE9       30.53R WCI  29
PORT HOPE        N/A     30  22  72 NE13      30.61R WCI  20
PORT HURON     FAIR      32  25  74 N6        30.57S WCI  26
TRI CITIES     FAIR      31  24  75 NE16      30.59R WCI  20
MIDLAND        CLOUDY    31  24  75 NE6       30.59S WCI  25
TROY           FAIR      38  26  62 NE7       30.56R WCI  32
SAGINAW HB     FAIR      32  28  86 NE12      30.58R WCI  23
$$
MIZ043>046-050>051-056>058-064>065-071>073-077>080-230000-
SOUTHWEST LOWER MICHIGAN

CITY           SKY/WX    TMP DP  RH WIND       PRES   REMARKS
BATTLE CREEK   MOCLDY    41  27  57 E9        30.48R
BENTON HARBOR  FAIR      41  30  65 E13G23    30.42F
BIG RAPIDS     CLOUDY    33  22  64 E9        30.52F WCI  25
COLDWATER      FAIR      39  32  76 E12G17    30.46S WCI  32
FREMONT        CLOUDY    36  17  47 E5        30.50F WCI  32
HOLLAND        CLOUDY    39  28  64 E14G21    30.46F WCI  31
GRAND RAPIDS   MOCLDY    38  28  67 E17       30.48F WCI  28
IONIA          CLOUDY    37  27  69 NE10      30.51S WCI  29
KALAMAZOO      FAIR      41  28  60 VRB7      30.46F
LUDINGTON      CLOUDY    36  24  63 E6        30.52R WCI  31
MARSHALL       MOCLDY    39  27  60 E6        30.47F
MOUNT PLEASANT CLOUDY    33  22  63 E8        30.56S WCI  26
MUSKEGON       CLOUDY    39  24  55 E12       30.49F WCI  32
SOUTH HAVEN    MOCLDY    41  28  60 E10       30.44F
$$
MIZ016>042-230000-
NORTHERN LOWER MICHIGAN

CITY           SKY/WX    TMP DP  RH WIND       PRES   REMARKS
ALPENA         FAIR      27  16  63 E7        30.63F WCI  19
BEAVER ISLAND  FAIR      29  23  76 E7        30.58R WCI  22
BELLAIRE       FAIR      33  24  68 E8        30.57S WCI  26
CADILLAC       CLOUDY    32  24  73 E10       30.50R WCI  23
CHARLEVOIX     MOCLDY    32  22  67 E7        30.61R WCI  26
FRANKFORT      CLOUDY    36  23  58 E3        30.53R
GAYLORD        FAIR      29  21  72 SE10      30.54F WCI  20
GRAYLING       CLOUDY    31  22  69 E8        30.54F WCI  23
HARBOR SPRINGS CLOUDY    31  19  62 E8        30.58S WCI  24
HOUGHTON LAKE  CLOUDY    31  21  66 E12       30.55F WCI  22
MANISTEE       CLOUDY    36  24  62 E6        30.52R WCI  31
OSCODA         MOCLDY    28  20  71 NE8       30.62R WCI  20
PELLSTON       MOCLDY    29  20  69 E9        30.59F WCI  20
ROGERS CITY    CLOUDY    26  17  67 SE7       30.64S WCI  19
TRAVERSE CITY  CLOUDY    36  23  59 E6        30.53F WCI  31
$$
MIZ007>008-015-230000-
EASTERN UPPER MICHIGAN

CITY           SKY/WX    TMP DP  RH WIND       PRES   REMARKS
MACKINAC ISLAN CLOUDY    26  18  73 E9G18     30.60S WCI  16
NEWBERRY       CLOUDY    27  17  66 SE10      30.56S WCI  17
S. S. MARIE    CLOUDY    28  16  60 SE8       30.60F WCI  20
MUNISING         N/A     30  19  63 S8        30.55R WCI  22
$$
MIZ004>006-011>014-085-230000-
CENTRAL UPPER MICHIGAN

CITY           SKY/WX    TMP DP  RH WIND       PRES   REMARKS
MANISTIQUE     FAIR      27  20  76 SE6       30.58R WCI  20
ESCANABA       MOCLDY    27  19  72 SE6       30.59R WCI  20
MENOMINEE      CLOUDY    28  21  75 NE9       30.57R WCI  19
SAWYER-GWINN   CLOUDY    28  18  64 S8        30.51S WCI  20
$$
MIZ001>003-009>011-084-230000-
WESTERN UPPER MICHIGAN

CITY           SKY/WX    TMP DP  RH WIND       PRES   REMARKS
IRON MOUNTAIN  CLOUDY    29  20  69 SE10      30.51R WCI  20
HOUGHTON       CLOUDY    25  15  66 E9        30.46F WCI  15
COPPER HARBOR    N/A     26  17  68 S7        30.51F WCI  18
IRONWOOD       CLOUDY    31  13  47 SE6       30.46R WCI  25
$$

ABBREVIATIONS USED IN REMARKS
   TC - TEMPERATURE IN CELSIUS
  WCI - WIND CHILL INDEX
   HX - HEAT INDEX
  VSB - VISIBILITY





USA.gov is the U.S. government's official web portal to all federal, state and local government web resources and services.